Weather in Tatarsk

Russia / Novosibirsk Oblast     55°12′52″N   75°58′26″E
temp.,
°C
wind,
m/s
gust,
m/s
humid.,
%
clouds,
%
prec.,
mm/h
press.,
hPa
HPBL,
m
22 october, fri
fri2201:00+7sw71153100 0.1 10061153
04:00+4sw7117111 0.0 1007916
07:00+3sw81270100 0.0 10071077
10:00+2sw81295100 0.2 10081006
13:00+3wsw8127791 0.5 10111092
16:00+5sw812435 0.0 10131620
19:00+4ssw71349100 0.0 10141108
22:00+3ssw8145974 0.0 10141041
23 october, sat
sat2301:00+2ssw81480100 0.0 1014946
04:00+2ssw81396100 0.0 1013747
07:00+3ssw81594100 0.0 1012632
10:00+4ssw101891100 0.3 1010773
13:00+6sw101677100 1.1 10081033
16:00+9sw91464100 0.0 10081002
19:00+9wsw8156649 0.0 1010829
22:00+7sw715755 0.0 1011524
24 october, sun
sun2401:00+8sw81675100 0.0 1012542
04:00+8wsw8167519 0.0 1013707
07:00+6wsw714868 0.0 1015514
10:00+6wsw613870 0.0 1016530
13:00+10wsw7116731 0.0 10171006
16:00+11wsw61154100 0.0 10181347
19:00+9wsw496485 0.0 1019286
22:00+7ssw4981100 0.0 1019201
25 october, mon
mon2501:00+8ssw41080100 0.0 1017262
04:00+8ssw61582100 0.0 1015400
07:00+8sw71578100 0.0 1013461
10:00+8sw71565100 0.0 1013487
13:00+11sw71347100 0.0 1013670
16:00+12wsw6104499 0.0 1014929
19:00+9wsw365596 0.0 1015125
22:00+8wsw2359100 0.0 101563
26 october, tue
tue2601:00+7ssw3460100 0.0 101480
04:00+7ssw3889100 1.3 1013290
07:00+7sse3782100 1.8 1011197
10:00+8s41064100 0.0 1008324
13:00+10ssw61253100 0.0 1005566
16:00+10w71264100 0.0 10051246
19:00+4wnw71294100 0.8 1008729
22:00+3wnw91280100 0.2 10111000